METEOR 2-11 DEB, 42453

Orbit data source: Space-Track

METEOR 2-11 DEB, 42453 is space debris in LEO originally from a launch on Thu, 05 Jul 1984 UTC launched from the Plesetsk Missile And Space Complex (PKMTR). Debris objects in space refer to the collection of defunct objects orbiting the Earth. Examples of debris include non-operational satellites, rocket bodies, and fragments generated from explosions, collisions, or faulty payload assembly.

Loading next visibility...
Identifier
42453, 1984-072P
Orbit
LEO
Country
Flag of CISCIS
Related business
Manufacturer
Unknown
Mission
Spacecraft
Bus & Motor
Unknown
Mass
Unknown
Launch date (UTC)
1984-07-05 (42 years ago)
Launch vehicle
Unknown
Launch site
Plesetsk Missile And Space Complex (PKMTR)
Object type
Payload
Rocket body
Debris
Shape & HBR
Unknown shape, 0.1 m
Radar Cross Section
Small (<0.1 m²)

Expand to show TLE details & history
Last TLE update: 15 hours ago

TLE from 15 hours ago
0 METEOR 2-11 DEB
1 42453U 84072P   26209.10992326  .00002549  00000-0  17777-2 0  9991
2 42453  82.5286 343.7621 0009536 196.7135 163.3721 13.98247058583086
Epoch: 2026-07-28T02:38Z
TLE epoch observation values (Epoch: 2026-07-28T02:38:17.369Z)
Latitude
0.00005°
Longitude
-1.59412°
Altitude
909.445 km
Speed
7.394 km/s
True Right ascension
22h 55m 02s
True Declination
0° 00' 00"
Sunlit
Object was in full shadow at epoch
Visualization orbit readout
Latitude
Unknown
Longitude
Unknown
Altitude
Unknown
Speed
Unknown
Apparent Right ascension
Unknown
Apparent Declination
Unknown
Sunlit
N/A
Visualization observer readout
Local Sidereal Time
07:23:18
Azimuth
Unknown
Elevation
Unknown
Doppler factor
Unknown
Orbital elements
Apogee altitude
903.942 km
Perigee altitude
890.067 km
Semi-major axis
7,275.142 km
Eccentricity
0.00095
Inclination
82.5286°
RAAN
343.7621°
Arg. of periapsis
196.7135°
True anomaly
163.40333°
Mean anomaly
163.3721°
Eccentric anomaly
163.38772°
Mean motion
3.49769 °/min
Orbital period
102.93 mins
BSTAR
0.0017777
Loading maneuver chart data...
Computing Atmospheric mass density...
Loading historical data...
Loading historical data...
Loading historical data...
Loading historical data...
Loading historical data...
Loading historical data...
Loading historical data...

Documentation

Showing up to 5 results
|